Location: Perryvale
(54.4667°N, 113.3833°W)
Time: 23:14:00
(UTC+00:00)

SR - Pass Details

Date: 23 May 2024
Orbit: 580 x 858 km, 66.7° (Epoch: 13 June)

Event Time Altitude Azimuth Distance (km) Brightness Sun altitude
Rises 09:59:12 0° 314° (NW) 2,896 ? -8.3°
Reaches altitude 10° 10:01:39 10° 306° (NW) 1,956 ? -8.1°
Maximum altitude 10:05:35 34° 241° (WSW) 975 ? -7.8°
Drops below altitude 10° 10:09:24 10° 176° (S) 1,893 ? -7.5°
Sets 10:11:45 0° 167° (SSE) 2,789 ? -7.3°
